Dewpoint
2 1 0 1 2 1 1 -2 -2 1 0 1 0 1 2 2 5 6 6 7 6 7 14 14 14 14 12 11 7 8 6 4 4 5 8 10 11 11 10 7 5 -1 0 10 12 13 14 14 13
2 1 2 1 2 3 0 -2 -2 0 -0 -0 0 1 2 3 6 9 9 5 7 11 14 15 14 13 13 10 6 3 1 0 -0 0 2 4 8 6 2 2 2 2 -1 4 11 12 12 12 11
3 2 2 1 1 2 1 -1 -2 -0 -1 -1 2 2 2 4 8 8 8 5 4 8 14 15 14 14 12 10 7 5 3 -1 -3 -3 4 3 1 3 1 2 2 -1 -3 -3 8 11 11 12 11
6 3 1 2 1 0 -0 -2 -1 -0 -1 -1 0 2 4 6 8 8 5 7 7 14 14 6 13 13 12 10 8 6 5 1 -3 5 9 8 6 9 4 4 -0 -3 -3 -4 -3 2 6 7 6
5 3 2 2 1 -1 -1 -1 -1 -0 -1 -2 -2 1 3 7 6 6 7 4 13 14 14 6 13 13 12 11 10 9 7 4 -2 4 9 10 10 10 9 9 4 -1 -1 -1 -3 -3 -2 -2 -2
4 2 2 2 -0 -1 -1 -1 -1 -1 -1 -2 -3 -2 1 5 5 6 6 5 9 7 11 12 13 12 13 11 11 10 8 5 -2 2 8 10 11 11 10 10 7 0 1 1 2 2 2 3 3
2 2 0 -0 -1 -1 -1 -1 -1 -2 -2 -2 -1 -1 2 5 8 6 5 6 6 9 8 12 13 13 12 13 12 10 9 7 1 -0 8 11 11 11 11 10 7 1 1 2 2 3 4 5 6
4 2 1 2 0 0 -1 -1 -1 -1 -2 -2 -0 -3 -0 6 7 6 6 8 8 8 8 12 14 14 13 13 13 12 10 9 4 -2 4 9 10 11 10 9 5 3 3 3 4 5 6 7 7
7 3 2 1 1 0 1 0 -1 0 -0 1 0 1 3 1 7 8 11 12 12 10 9 12 14 14 15 15 13 13 11 10 7 2 0 4 11 11 11 8 3 4 6 6 6 7 7 8 9
5 4 2 0 1 1 1 1 1 2 1 0 1 2 4 2 7 10 11 11 12 11 10 11 13 14 14 14 13 13 13 11 11 6 1 10 9 9 7 5 6 6 7 8 8 8 9 10 11
5 6 2 4 3 5 5 4 4 2 2 2 1 2 3 5 7 9 9 9 10 12 13 10 13 10 13 13 13 12 13 13 13 10 8 10 4 1 7 8 8 8 8 10 9 10 10 10 9
5 4 4 4 6 6 6 5 5 3 1 2 4 3 4 4 4 6 8 8 9 10 11 8 10 8 10 10 12 13 13 12 12 10 6 8 9 7 10 10 8 8 9 10 10 10 9 9 8
4 2 3 3 5 4 3 4 4 4 4 4 5 5 5 4 5 5 4 7 9 9 10 9 7 7 7 9 10 11 13 12 12 10 7 11 10 11 10 10 10 10 10 10 9 9 9 9 8
3 4 3 3 3 3 3 2 2 2 2 1 2 3 4 4 4 4 4 4 4 7 7 7 3 5 5 7 9 9 13 13 13 12 9 10 10 10 9 9 9 9 9 9 9 8 8 8 7
4 5 2 2 2 2 2 3 2 1 1 1 1 1 1 1 2 4 4 4 3 3 3 2 2 3 2 4 8 10 13 13 13 12 11 10 10 9 9 9 9 9 9 9 8 8 8 1 -4
3 3 4 1 2 1 2 2 -2 -0 1 1 1 0 0 1 1 2 3 4 4 3 2 2 2 2 2 3 7 11 13 13 13 11 10 10 10 9 10 10 9 9 9 9 8 1 -4 -4 -6
2 2 3 2 2 2 3 3 0 3 1 1 0 1 2 2 1 1 1 2 4 3 3 2 2 2 2 3 12 13 14 13 13 12 11 10 10 10 10 10 9 9 9 7 -3 -3 -3 -7 -11
1 3 1 2 0 1 2 2 -0 0 0 0 1 1 1 2 2 3 3 2 3 2 2 3 2 2 2 3 12 13 14 14 13 12 11 11 11 11 11 10 9 9 5 -3 -3 -2 -4 -8 -12
2 2 3 1 -0 0 -0 -1 -2 -3 -3 -3 -2 -2 -1 -1 1 2 3 4 4 1 -0 3 2 2 2 3 12 13 12 12 12 12 12 12 12 11 11 10 9 5 -3 -2 -1 -2 -5 -10 -13
2 2 2 -0 -1 -0 -1 -1 -3 -3 -3 -3 -4 -5 -6 -5 -4 -2 1 2 4 4 3 3 2 2 2 4 8 11 11 12 12 12 12 13 12 11 11 9 6 -3 -2 -1 -1 -3 -6 -10 -14
2 2 2 1 -1 -1 0 0 -2 -6 -6 -5 -5 -5 -5 -5 -5 -5 -5 -1 3 4 4 3 3 2 2 5 10 9 10 12 13 13 12 12 12 11 9 6 -2 -2 -1 -1 -1 -4 -7 -12 -16
3 -0 1 2 2 4 0 3 -2 -4 -4 -5 -6 -6 -6 -5 -4 -4 -5 -4 1 4 4 4 3 2 3 3 5 7 9 12 12 12 12 11 11 9 5 -1 -3 -2 -1 -1 -2 -5 -9 -15 -19
2 -0 1 1 3 3 2 4 -3 -5 -4 -5 -6 -7 -6 -6 -5 -4 -3 -3 -2 2 2 3 3 2 3 3 5 10 12 12 12 11 11 11 9 4 1 -2 -2 -1 -1 -1 -3 -6 -13 -18 -20
0 2 2 2 4 5 -0 3 -2 -8 -9 -8 -8 -7 -7 -7 -5 -4 -4 -2 -1 2 1 2 3 2 3 3 7 11 12 12 12 11 10 10 5 2 -2 -2 -1 -1 -1 -2 -5 -10 -16 -19 -19
2 5 5 5 5 3 -3 -0 -1 -7 -6 -5 -6 -8 -7 -6 -5 -3 -1 1 1 3 2 2 3 3 4 5 9 11 12 12 12 11 10 9 5 -1 -2 -2 -1 -1 -2 -4 -8 -15 -19 -19 -19
4 2 3 3 1 -3 -2 1 -4 -7 -5 -5 -6 -7 -4 -3 -3 -4 -1 2 3 4 1 3 4 4 5 6 8 10 11 12 11 10 9 4 -1 -2 -2 -1 -1 -2 -4 -8 -14 -18 -18 -19 -20
2 4 1 3 1 2 -3 -5 -7 -8 -8 -7 -7 -3 -2 -2 -2 -2 -3 2 4 6 2 3 5 5 6 7 9 10 11 11 10 7 4 2 -2 -2 -1 -1 -2 -4 -7 -12 -18 -18 -18 -19 -21
1 -1 3 5 4 3 -1 -2 -3 -5 -6 -6 -6 -3 -2 -0 1 -1 -3 2 5 7 5 6 6 7 7 7 8 10 10 10 6 4 0 -3 -2 -1 -1 -2 -4 -8 -12 -17 -17 -17 -18 -20 -21
3 4 3 3 4 3 4 0 -6 -6 -7 -7 -2 -2 -1 2 3 -0 -1 3 6 7 7 7 7 7 7 8 9 10 8 5 5 -0 -3 -2 -2 -1 -2 -4 -7 -12 -17 -17 -16 -17 -18 -19 -20
-2 1 1 5 5 5 5 3 -5 -5 -5 -1 -2 -3 -1 3 4 3 4 6 7 7 6 6 7 7 7 9 9 8 6 5 -1 -4 -3 -2 -2 -2 -4 -7 -11 -16 -16 -16 -16 -17 -17 -19 -21
Wind_Speed
9 7 7 4 6 5 7 5 2 4 4 2 4 6 4 6 3 1 4 11 12 16 17 17 15 12 11 8 8 8 7 6 6 7 8 9 9 8 5 3 2 2 3 8 12 13 15 14 10
7 5 3 3 6 9 8 6 8 2 4 8 8 7 8 2 1 2 10 9 13 17 17 17 16 13 10 8 8 7 5 3 3 4 6 10 10 4 2 3 3 3 2 6 14 12 9 7 8
5 2 5 4 8 13 5 6 6 2 4 3 3 4 3 1 3 5 4 11 13 16 16 17 17 15 11 9 8 6 5 4 5 5 10 12 11 9 7 6 5 5 4 4 12 13 11 11 10
4 3 3 9 16 11 11 2 7 2 2 1 4 5 3 2 3 6 8 9 12 17 17 14 17 14 11 10 8 6 5 5 6 9 15 12 9 6 6 6 6 6 6 5 6 8 9 9 9
8 5 8 12 20 15 10 7 6 6 5 4 4 1 2 2 5 6 6 11 13 16 15 16 16 14 12 12 8 6 4 5 5 9 12 11 7 4 4 5 5 4 6 7 6 5 5 3 4
9 8 8 16 20 11 13 13 11 12 7 6 5 6 3 3 5 7 9 10 13 15 15 14 16 14 12 9 7 5 4 4 4 7 9 14 9 7 3 2 2 3 4 5 5 4 3 3 2
14 9 15 17 18 15 15 10 13 12 12 10 4 5 1 2 5 8 12 13 12 14 15 14 15 15 11 10 7 5 3 3 3 6 10 13 11 6 6 3 1 2 3 3 3 2 2 2 1
11 6 15 14 18 20 8 10 9 9 11 3 4 6 6 2 9 10 11 12 12 14 14 14 15 14 13 11 10 6 4 3 3 6 9 11 9 8 7 5 4 2 2 2 2 2 2 1 1
6 8 13 20 15 11 6 9 10 6 9 4 6 4 2 3 11 11 12 13 13 13 14 15 15 15 14 12 11 9 7 5 5 6 8 9 8 10 8 8 5 3 2 1 1 1 1 2 4
11 10 16 8 12 8 5 9 8 5 11 13 9 5 2 6 11 12 12 13 13 14 15 14 14 15 15 14 14 12 10 8 6 6 7 8 8 9 11 8 6 5 3 2 2 2 2 3 3
11 14 11 6 8 4 9 11 10 11 15 15 11 7 1 1 7 10 12 11 12 13 13 14 15 15 15 15 14 15 14 11 10 9 10 9 9 9 8 7 5 5 4 3 3 3 2 5 4
8 13 14 9 10 9 11 13 16 19 23 9 8 7 9 8 7 10 13 12 11 13 13 13 14 13 15 16 17 15 15 14 11 11 12 10 10 9 6 5 5 5 4 4 3 4 5 8 10
11 10 10 12 12 14 15 22 23 23 23 22 23 20 20 18 16 12 12 13 13 14 13 15 15 16 15 16 17 18 16 16 14 13 14 11 10 8 6 5 4 5 6 5 5 7 9 11 13
1 7 12 12 16 17 18 24 22 24 26 28 30 31 29 27 23 19 15 14 15 16 14 14 15 17 18 19 18 18 17 16 16 15 14 12 9 8 6 5 5 7 8 8 8 11 11 13 14
7 11 12 14 14 13 12 20 20 30 31 33 29 28 28 31 29 27 22 18 15 16 15 17 18 18 18 20 21 20 19 18 17 17 14 11 11 10 9 8 6 7 8 10 10 11 12 13 15
4 5 5 2 2 6 10 18 7 10 18 21 27 31 32 31 31 31 28 24 19 20 20 18 18 19 21 22 22 22 21 20 19 20 17 15 15 13 12 10 8 6 8 10 10 10 11 14 16
7 7 9 9 1 4 12 12 5 4 10 15 19 20 22 25 29 32 31 28 25 20 21 23 22 22 21 23 21 21 22 22 21 23 22 19 18 16 14 12 9 7 8 9 7 9 13 15 16
6 8 8 10 2 9 16 22 20 25 28 26 24 23 23 24 24 22 25 28 27 28 27 27 25 23 23 23 21 22 22 22 24 28 25 22 21 18 15 14 10 8 8 7 7 11 14 15 14
1 6 9 10 10 18 19 23 21 25 29 29 30 30 32 33 27 25 23 22 21 28 31 28 27 24 24 25 24 26 29 33 32 30 28 26 24 21 17 15 10 9 8 6 8 11 13 13 14
14 15 15 13 11 10 18 32 24 26 26 32 32 33 35 35 34 33 29 28 24 25 30 29 28 25 24 24 24 22 33 37 35 31 29 27 25 22 16 14 11 10 7 7 8 10 12 13 14
15 15 14 16 15 17 20 25 16 5 12 20 27 31 33 35 35 33 34 33 29 26 27 30 29 28 26 25 25 33 38 37 34 31 29 28 26 22 15 14 12 10 7 7 8 9 10 12 13
13 8 13 13 9 6 3 11 17 16 18 17 23 23 26 27 29 32 35 33 33 30 30 29 30 30 28 29 28 31 36 40 35 32 32 30 26 20 16 14 13 9 7 7 8 9 10 10 10
6 5 7 9 11 13 14 6 13 6 15 15 15 19 20 20 22 26 30 33 31 32 36 32 30 30 30 27 27 28 32 35 36 34 33 30 25 22 18 15 12 8 7 7 8 10 10 10 10
3 7 9 8 5 8 15 15 19 12 10 8 7 7 12 14 16 22 24 25 28 27 35 34 31 31 30 28 27 29 34 37 36 35 34 30 26 22 18 15 11 7 6 7 9 10 10 11 12
11 4 3 4 6 8 1 12 22 2 6 11 12 15 20 20 20 19 19 23 25 28 33 35 34 33 31 29 28 31 32 33 31 34 34 29 26 22 18 13 8 6 6 7 9 10 11 12 13
16 11 5 6 5 7 4 11 9 4 3 6 8 18 17 17 21 24 21 21 23 29 32 34 36 34 32 30 30 29 31 32 33 34 33 28 23 19 15 10 7 5 6 7 9 10 12 13 14
7 10 13 16 16 11 10 20 26 26 23 20 22 9 11 17 22 21 22 19 23 25 32 36 36 34 32 31 30 30 31 33 35 33 29 24 21 17 12 8 5 5 6 8 9 11 12 13 14
13 1 3 5 5 9 11 19 15 8 13 8 7 8 13 18 23 16 19 19 20 24 30 32 33 33 32 31 31 30 31 32 34 30 27 23 19 14 9 6 4 5 7 8 9 11 13 14 16
9 8 7 5 6 6 10 13 6 9 10 12 6 9 15 16 23 12 13 16 18 23 29 31 31 32 32 32 32 32 33 33 30 28 25 21 16 11 7 4 4 6 7 9 10 12 14 16 17
15 12 19 8 8 9 12 22 13 15 11 7 7 13 15 12 17 9 8 15 20 24 28 33 33 32 34 35 34 34 34 32 30 28 23 18 13 9 5 3 4 6 8 9 11 14 16 17 18
Wind_Direction
283 298 319 311 245 237 240 222 261 208 208 257 275 258 310 313 276 358 165 159 159 162 161 164 170 182 175 157 159 167 182 193 207 215 196 186 201 226 265 278 279 147 150 163 151 133 130 157 184
270 302 305 257 249 233 224 211 210 199 317 299 271 240 245 226 259 86 140 158 158 162 161 166 172 182 172 158 146 143 142 154 179 202 200 190 204 239 205 131 100 69 105 174 168 170 179 172 208
248 219 248 234 238 237 246 196 177 316 318 242 236 246 270 92 161 138 187 165 165 167 163 177 176 179 180 165 148 135 128 126 133 155 134 110 124 100 103 89 73 65 72 136 180 186 196 208 232
207 204 218 238 234 237 242 175 169 307 158 17 324 240 249 213 125 168 174 170 176 167 168 183 177 180 179 171 155 140 119 113 122 132 125 124 130 91 86 72 72 77 81 116 149 185 208 226 242
186 215 229 237 243 241 238 251 232 269 302 300 312 232 262 181 185 181 185 179 169 173 173 182 181 185 182 174 165 149 121 100 117 141 141 128 124 112 76 52 53 74 88 96 111 131 144 174 189
191 227 223 231 239 231 249 251 261 262 265 286 258 259 249 215 192 193 177 176 177 183 179 183 185 192 190 180 166 163 134 101 104 139 141 140 151 164 247 4 24 94 105 105 107 109 106 102 77
227 216 231 242 248 244 243 245 245 258 264 258 249 247 173 202 191 183 177 178 179 178 184 183 188 195 202 200 190 180 159 119 116 148 151 155 159 169 223 229 270 151 134 122 114 111 110 103 82
219 238 233 231 244 244 230 225 246 247 258 216 216 230 213 171 199 187 187 183 181 184 186 186 185 195 200 206 204 205 195 175 162 164 170 180 170 171 173 211 234 203 169 152 131 116 98 36 337
194 224 230 228 244 236 207 225 233 246 248 236 215 248 243 231 198 192 185 187 188 190 191 192 190 194 198 207 223 216 211 209 199 186 184 181 182 183 179 212 213 221 197 164 144 140 330 320 324
212 227 238 249 248 245 229 246 233 242 221 228 215 209 300 258 200 200 200 202 200 200 199 200 198 199 200 202 213 215 222 215 202 197 195 186 193 198 202 207 215 211 211 213 258 294 314 333 312
205 235 225 224 226 228 254 247 242 242 242 232 225 226 290 76 217 220 220 219 214 207 203 205 206 213 206 206 203 209 210 202 202 204 194 190 195 196 191 207 215 216 227 250 283 303 306 299 300
222 241 254 259 234 253 246 265 254 243 246 243 250 265 275 260 243 232 231 228 219 211 210 214 214 223 222 222 213 208 207 203 201 208 197 188 181 180 187 196 214 215 231 250 254 263 296 292 292
233 247 250 253 253 258 263 254 256 263 255 253 260 262 263 265 255 247 239 231 223 222 220 224 224 228 228 227 225 213 205 204 201 202 196 187 183 175 188 207 217 230 231 247 275 276 289 286 292
250 262 267 268 263 266 261 260 255 251 258 259 257 256 257 256 254 248 239 238 234 230 228 231 239 237 237 232 231 221 206 203 198 197 190 183 191 209 218 219 243 267 260 260 269 275 280 289 295
257 279 271 259 256 264 263 264 246 253 252 254 252 252 250 249 249 247 243 241 235 236 240 244 238 242 245 240 230 221 205 201 197 192 188 197 205 203 205 208 231 289 266 262 260 278 288 292 299
243 255 277 96 313 240 218 262 286 271 247 249 255 254 251 247 244 244 247 249 247 244 244 242 253 253 249 243 228 215 205 200 198 195 197 202 203 205 212 217 230 265 257 264 268 274 295 309 313
215 258 234 289 296 274 213 273 267 272 254 263 254 257 256 252 247 245 244 246 245 244 238 241 254 256 257 239 219 209 203 198 199 199 204 208 211 215 214 218 228 259 254 253 268 298 314 318 322
234 229 237 251 172 284 271 265 267 266 272 270 265 260 255 254 253 249 244 243 245 242 244 242 248 252 257 236 210 205 200 194 197 204 206 209 216 216 213 219 235 244 238 255 290 314 319 322 327
299 263 261 264 274 297 275 274 272 271 268 265 261 258 259 257 256 253 249 246 242 240 240 239 239 247 249 234 205 197 197 205 206 206 209 211 213 211 211 217 231 228 232 263 301 313 322 327 333
252 264 271 284 281 277 288 283 281 267 255 254 256 256 254 255 253 250 247 244 239 233 232 231 235 242 244 227 210 198 206 208 211 209 209 208 202 209 209 210 216 216 234 275 303 316 326 332 338
241 254 262 270 294 286 279 281 256 259 244 247 246 248 249 247 245 244 240 237 235 232 227 228 233 239 233 219 201 209 213 210 209 206 203 194 197 204 209 210 211 219 245 281 305 321 332 334 338
260 253 252 263 277 271 35 291 283 266 258 254 246 240 238 240 241 243 239 234 229 227 230 227 229 230 222 219 223 224 217 206 205 199 194 191 194 200 199 202 213 226 253 287 310 325 330 335 330
244 217 238 260 273 294 251 246 270 256 247 253 256 265 268 269 261 250 246 234 228 226 229 228 227 221 219 218 219 214 211 203 202 191 193 192 188 193 196 204 213 231 266 295 314 325 329 328 329
113 226 244 260 262 261 245 207 275 274 271 255 249 276 284 274 276 261 251 244 229 222 224 226 223 217 212 210 209 204 208 209 200 193 191 189 187 196 190 201 214 240 274 303 318 322 324 326 328
217 185 236 226 208 247 237 205 246 261 280 273 273 291 297 288 286 263 254 237 223 213 216 218 214 211 206 203 199 203 209 211 204 197 192 190 193 188 192 199 215 249 286 308 318 321 321 325 325
195 206 223 258 231 281 199 239 251 299 301 250 254 288 298 304 288 264 255 234 221 211 212 210 207 204 200 197 196 199 202 203 198 193 190 186 187 187 191 202 223 263 294 313 320 319 320 322 323
179 214 243 268 272 280 250 268 279 270 267 258 258 258 301 309 325 260 249 236 216 205 204 205 200 198 194 190 189 193 197 198 194 186 185 187 182 185 192 205 236 274 303 317 317 317 321 322 319
227 294 182 207 266 257 245 263 259 276 285 208 258 281 319 326 325 276 235 228 209 195 195 192 192 190 186 184 185 188 191 189 181 182 180 180 181 185 191 213 253 293 311 315 318 321 321 318 313
195 225 217 303 232 263 285 261 335 298 294 270 240 307 317 330 330 306 236 213 192 179 178 179 179 182 179 179 180 180 178 178 181 177 175 178 180 184 193 224 279 304 315 320 321 320 317 313 312
224 227 217 228 224 226 255 268 287 293 256 219 277 309 314 331 333 338 222 191 173 169 167 173 174 175 175 175 174 173 174 173 172 173 173 175 178 181 191 247 296 312 319 319 320 317 314 315 313
Height
1522 1522 1522 1522 1523 1514 1509 1507 1505 1503 1503 1503 1504 1503 1499 1499 1494 1499 1499 1500 1502 1504 1507 1509 1512 1513 1514 1514 1515 1516 1516 1517 1518 1519 1521 1522 1522 1522 1523 1523 1522 1523 1522 1522 1523 1523 1523 1525 1526
1520 1521 1522 1521 1518 1514 1502 1500 1505 1502 1503 1504 1504 1502 1502 1496 1500 1500 1501 1501 1502 1505 1507 1510 1511 1513 1514 1515 1515 1516 1516 1516 1516 1517 1518 1520 1522 1523 1523 1523 1523 1522 1522 1522 1523 1524 1524 1525 1526
1519 1520 1521 1514 1510 1508 1503 1500 1499 1504 1504 1503 1501 1501 1500 1498 1500 1501 1501 1501 1503 1505 1508 1510 1510 1512 1514 1515 1516 1517 1517 1516 1516 1516 1518 1519 1522 1524 1524 1523 1523 1522 1522 1522 1523 1524 1525 1525 1526
1518 1520 1521 1513 1505 1501 1501 1499 1501 1503 1502 1503 1502 1499 1500 1499 1500 1500 1500 1502 1504 1506 1508 1508 1511 1512 1514 1515 1516 1517 1517 1517 1517 1517 1518 1520 1522 1523 1524 1524 1523 1523 1522 1522 1522 1524 1524 1525 1525
1516 1517 1509 1509 1500 1497 1502 1502 1502 1503 1503 1502 1503 1497 1499 1499 1498 1500 1500 1502 1505 1507 1509 1508 1511 1513 1514 1515 1516 1517 1518 1518 1517 1517 1519 1520 1522 1523 1524 1524 1524 1524 1523 1523 1523 1524 1524 1525 1524
1514 1511 1506 1504 1495 1496 1501 1502 1503 1502 1502 1502 1501 1499 1498 1498 1499 1499 1500 1502 1503 1506 1507 1509 1511 1513 1514 1516 1516 1517 1518 1518 1518 1518 1519 1520 1522 1524 1524 1524 1524 1524 1523 1524 1524 1525 1524 1525 1525
1506 1506 1499 1496 1493 1493 1497 1501 1501 1499 1499 1500 1501 1497 1498 1500 1499 1499 1499 1501 1503 1504 1506 1508 1511 1512 1515 1516 1517 1517 1518 1518 1518 1519 1520 1520 1522 1523 1524 1525 1524 1524 1524 1524 1523 1524 1524 1524 1524
1506 1503 1497 1497 1492 1492 1496 1500 1499 1500 1496 1500 1500 1495 1495 1499 1498 1499 1499 1501 1502 1503 1505 1507 1510 1513 1514 1515 1516 1517 1518 1518 1519 1519 1520 1521 1522 1522 1523 1525 1524 1525 1524 1524 1523 1524 1524 1525 1524
1507 1501 1495 1492 1493 1492 1498 1497 1497 1499 1499 1498 1498 1498 1497 1496 1497 1499 1499 1501 1502 1502 1504 1506 1508 1511 1514 1515 1515 1516 1517 1518 1519 1519 1519 1521 1522 1523 1523 1523 1524 1525 1525 1525 1524 1523 1524 1524 1525
1502 1497 1490 1489 1492 1494 1495 1497 1496 1497 1495 1495 1496 1496 1496 1495 1496 1498 1500 1501 1500 1501 1502 1504 1506 1509 1511 1513 1514 1515 1516 1517 1518 1518 1519 1522 1522 1523 1522 1523 1524 1524 1525 1525 1525 1524 1524 1524 1526
1499 1494 1492 1496 1496 1497 1497 1497 1497 1494 1492 1492 1493 1494 1495 1495 1495 1496 1498 1500 1501 1501 1501 1502 1504 1506 1508 1510 1512 1513 1515 1516 1517 1518 1518 1519 1520 1521 1522 1523 1524 1524 1524 1525 1524 1524 1523 1524 1524
1498 1495 1496 1496 1497 1497 1496 1497 1495 1492 1489 1491 1493 1493 1493 1494 1493 1494 1495 1497 1498 1499 1500 1500 1502 1503 1504 1506 1507 1511 1511 1512 1514 1515 1516 1518 1519 1520 1522 1523 1523 1524 1524 1524 1523 1524 1522 1523 1522
1497 1494 1497 1496 1497 1496 1495 1492 1492 1489 1488 1489 1489 1489 1489 1490 1491 1491 1491 1493 1494 1496 1497 1498 1499 1499 1501 1502 1504 1506 1508 1509 1511 1512 1514 1517 1518 1519 1521 1522 1523 1523 1523 1523 1522 1522 1522 1522 1520
1496 1497 1495 1493 1493 1492 1492 1487 1489 1483 1482 1484 1485 1484 1485 1485 1486 1487 1487 1488 1490 1492 1493 1495 1496 1496 1496 1497 1500 1502 1504 1507 1508 1509 1511 1514 1516 1518 1519 1520 1521 1522 1521 1521 1521 1521 1520 1519 1517
1497 1495 1490 1487 1486 1487 1488 1479 1473 1475 1477 1476 1478 1477 1478 1478 1480 1481 1483 1484 1485 1487 1489 1490 1491 1492 1493 1493 1496 1498 1501 1503 1505 1507 1509 1511 1514 1515 1516 1518 1519 1520 1520 1520 1519 1519 1518 1517 1515
1494 1493 1486 1480 1482 1482 1486 1468 1465 1469 1469 1470 1471 1472 1472 1471 1472 1475 1476 1478 1480 1481 1483 1484 1486 1487 1489 1489 1491 1494 1496 1499 1502 1504 1507 1508 1510 1512 1514 1515 1516 1517 1517 1517 1517 1516 1514 1513 1511
1491 1480 1484 1483 1482 1481 1480 1466 1465 1468 1468 1466 1464 1465 1465 1465 1465 1467 1469 1472 1473 1475 1477 1478 1480 1482 1483 1485 1488 1491 1493 1495 1497 1500 1503 1505 1507 1509 1511 1513 1514 1514 1515 1515 1515 1514 1512 1509 1507
1476 1486 1484 1482 1479 1480 1474 1466 1467 1467 1465 1462 1460 1459 1458 1458 1458 1460 1461 1463 1465 1466 1469 1472 1474 1476 1478 1479 1482 1487 1489 1491 1492 1495 1499 1501 1503 1506 1508 1510 1511 1512 1513 1513 1513 1511 1509 1507 1505
1487 1486 1486 1482 1481 1480 1468 1459 1460 1460 1457 1454 1453 1453 1451 1450 1452 1452 1453 1455 1456 1457 1461 1465 1466 1469 1471 1472 1476 1478 1480 1482 1485 1490 1493 1496 1499 1503 1505 1508 1509 1510 1511 1511 1510 1509 1507 1505 1502
1488 1486 1482 1479 1479 1480 1467 1443 1449 1447 1441 1441 1442 1440 1439 1440 1441 1442 1444 1446 1448 1449 1452 1457 1459 1461 1464 1467 1469 1474 1473 1475 1479 1483 1488 1491 1496 1500 1503 1505 1506 1507 1508 1508 1507 1507 1505 1502 1501
1486 1483 1480 1480 1478 1476 1468 1435 1422 1424 1426 1428 1428 1427 1427 1426 1427 1430 1432 1435 1439 1441 1443 1448 1452 1455 1457 1461 1464 1464 1466 1471 1474 1479 1484 1488 1493 1497 1500 1502 1504 1505 1506 1506 1505 1504 1502 1500 1499
1481 1479 1482 1482 1482 1474 1471 1440 1421 1415 1413 1415 1414 1414 1414 1415 1417 1418 1421 1423 1427 1432 1437 1440 1444 1447 1450 1453 1457 1460 1462 1465 1470 1476 1481 1485 1490 1494 1497 1499 1501 1502 1503 1503 1502 1501 1500 1499 1498
1481 1480 1480 1480 1480 1479 1466 1478 1405 1407 1408 1407 1409 1410 1411 1412 1412 1412 1413 1414 1419 1423 1427 1432 1436 1439 1443 1448 1451 1457 1461 1463 1467 1473 1478 1483 1487 1491 1494 1496 1499 1500 1500 1500 1499 1498 1497 1497 1496
1481 1481 1480 1478 1481 1470 1446 1457 1399 1395 1391 1396 1400 1403 1405 1405 1405 1406 1406 1408 1409 1415 1417 1424 1428 1433 1437 1441 1446 1451 1455 1458 1463 1470 1476 1480 1485 1488 1491 1494 1497 1497 1498 1497 1496 1495 1495 1494 1492
1481 1481 1472 1472 1474 1449 1435 1436 1401 1392 1397 1400 1400 1399 1399 1399 1399 1399 1399 1400 1400 1405 1408 1415 1421 1427 1431 1435 1440 1444 1451 1458 1462 1468 1473 1478 1482 1486 1489 1492 1494 1494 1495 1494 1493 1493 1493 1490 1488
1475 1473 1463 1458 1446 1429 1436 1424 1390 1388 1393 1393 1395 1396 1395 1392 1391 1391 1391 1392 1393 1396 1401 1408 1415 1421 1426 1431 1436 1442 1447 1454 1460 1466 1471 1476 1482 1484 1488 1490 1491 1492 1492 1491 1491 1491 1490 1488 1485
1467 1471 1466 1465 1455 1450 1422 1399 1384 1385 1385 1387 1389 1392 1389 1388 1383 1382 1384 1385 1387 1390 1395 1402 1410 1417 1422 1427 1432 1438 1445 1451 1458 1465 1471 1476 1480 1483 1486 1488 1489 1490 1489 1488 1489 1489 1487 1484 1482
1462 1462 1470 1470 1459 1432 1402 1393 1386 1381 1385 1385 1386 1388 1385 1383 1379 1375 1376 1379 1382 1385 1391 1399 1406 1413 1418 1424 1430 1436 1444 1451 1458 1463 1469 1475 1478 1482 1484 1486 1487 1488 1487 1487 1486 1485 1483 1481 1479
1464 1464 1461 1458 1448 1430 1414 1377 1374 1381 1382 1381 1386 1385 1383 1379 1377 1370 1372 1375 1378 1382 1386 1395 1403 1410 1416 1422 1428 1434 1443 1451 1457 1464 1469 1474 1477 1480 1482 1484 1486 1486 1485 1484 1483 1481 1480 1478 1475
1441 1442 1448 1450 1434 1432 1423 1376 1380 1381 1381 1385 1383 1381 1379 1375 1374 1368 1372 1374 1376 1379 1384 1391 1400 1409 1415 1422 1428 1435 1442 1450 1457 1463 1468 1472 1475 1478 1480 1482 1483 1483 1482 1481 1479 1478 1476 1474 1471